This is the latest recevied weather packets stored in our database for station/object S54A-10. If no packets are shown the sender has not sent any weather packets the latest 10 day(s).
| Time | Temp. | Humidity | Pressure | Rain* | Wind** | Luminosity | Snow |
|---|---|---|---|---|---|---|---|
| 1777498197 | 7.78° C | 72% | 1025.8 hPa | - | - | - | - |
| 1777497297 | 7.78° C | 73% | 1025.6 hPa | - | - | - | - |
| 1777496397 | 8.33° C | 72% | 1025.6 hPa | - | - | - | - |
| 1777495497 | 8.33° C | 72% | 1025.5 hPa | - | - | - | - |
| 1777494597 | 8.33° C | 72% | 1025.5 hPa | - | - | - | - |
| 1777493697 | 8.89° C | 71% | 1025.3 hPa | - | - | - | - |
| 1777492797 | 9.44° C | 69% | 1025.1 hPa | - | - | - | - |
| 1777491897 | 9.44° C | 68% | 1024.9 hPa | - | - | - | - |
| 1777490997 | 10° C | 68% | 1024.8 hPa | - | - | - | - |
| 1777490097 | 10° C | 67% | 1024.6 hPa | - | - | - | - |
| 1777489197 | 10° C | 68% | 1024.5 hPa | - | - | - | - |
| 1777488297 | 10° C | 66% | 1024.2 hPa | - | - | - | - |
| 1777487397 | 10.56° C | 66% | 1023.9 hPa | - | - | - | - |
| 1777486496 | 10.56° C | 66% | 1024 hPa | - | - | - | - |
| 1777485596 | 10.56° C | 65% | 1023.7 hPa | - | - | - | - |
| 1777484696 | 11.11° C | 65% | 1023.6 hPa | - | - | - | - |
| 1777483796 | 11.11° C | 64% | 1023.5 hPa | - | - | - | - |
| 1777482896 | 11.11° C | 64% | 1023.5 hPa | - | - | - | - |
| 1777481996 | 10.56° C | 64% | 1023.4 hPa | - | - | - | - |
| 1777481096 | 11.11° C | 63% | 1023.3 hPa | - | - | - | - |
| 1777480196 | 11.11° C | 63% | 1023.3 hPa | - | - | - | - |
| 1777479296 | 11.11° C | 63% | 1023.2 hPa | - | - | - | - |
| 1777478396 | 11.67° C | 65% | 1023.2 hPa | - | - | - | - |
| 1777477496 | 11.67° C | 64% | 1023.1 hPa | - | - | - | - |
| 1777476596 | 12.22° C | 65% | 1023.2 hPa | - | - | - | - |
* Rain since midnight (hover to see other rain measurements)
** Current wind speed in m/s (hover to see current wind gust speed)